sat.trackr.live / text

‹ back to catalog

O3B MPOWER F8

NORAD 62363 · 2024-244B

PAYLOAD ACTIVE UNKNOWN

§ Identity

Operator
Country
O3B
Launch date
2024-12-17
Launch site
AFETR
Launch vehicle
Mass (kg)
RCS (m²)

Purposes: comms

External: N2YO · Heavens-Above · Gunter

§ Orbital elements

Epoch: 2026-05-25T01:19:22.776672Z

Period
287.93 min
Inclination
0.0225°
Eccentricity
0.0006123
Mean motion
5.00115263 rev/d
Perigee alt
8,057.1 km
Apogee alt
8,074.7 km
Semi-major
14,444.0 km
B*
0.0000e+0
RAAN
319.4468°
Arg perigee
94.0818°
Mean anomaly
306.5272°
Rev number
1,971

§ Raw data

O3B MPOWER F81 62363U 24244B   26145.05512473 -.00000024  00000+0  00000+0 0  99962 62363   0.0225 319.4468 0006123  94.0818 306.5272  5.00115263 19714

JSON: /api/v1/satellites/62363 · /tle

For live sub-satellite position, see the globe view (requires WebGL).

§ Visibility from observer

Set your observer location to see the next 7 days of passes ≥ 10°. The values pass through the URL so the page stays shareable.

No JS? Fill the form by hand. The geolocation button needs JavaScript.